Total_Precipitation_Accumulation
0.00 0.00 0.01 0.01 0.01 0.01 0.02 0.05 0.11 0.18 0.11 0.11 0.21 0.40 0.46 0.47 0.56 0.72 0.85 0.81 0.84 0.88 1.04 1.22 1.52 1.93 2.34 2.95 3.60 3.72 3.24 2.74 2.29 1.94 1.63 1.33 1.08 0.99 0.94 0.80 0.73 0.71 0.73 0.75
0.01 0.02 0.02 0.02 0.02 0.04 0.05 0.07 0.12 0.16 0.10 0.12 0.19 0.38 0.55 0.62 0.74 0.76 0.82 0.84 0.79 0.94 1.19 1.47 1.82 2.08 2.36 2.76 3.14 3.08 2.61 2.09 1.57 1.24 1.11 0.95 0.79 0.68 0.58 0.52 0.54 0.50 0.56 0.63
0.01 0.03 0.02 0.02 0.02 0.05 0.07 0.08 0.12 0.14 0.07 0.12 0.18 0.44 0.69 0.76 0.65 0.55 0.48 0.57 0.58 0.69 1.09 1.63 2.10 2.31 2.42 2.45 2.26 2.04 1.63 1.11 0.85 0.66 0.60 0.53 0.51 0.48 0.39 0.34 0.35 0.33 0.35 0.39
0.01 0.02 0.01 0.02 0.03 0.04 0.07 0.05 0.05 0.05 0.06 0.19 0.27 0.68 0.88 0.76 0.61 0.51 0.39 0.37 0.38 0.52 0.93 1.60 1.88 1.89 1.85 1.77 1.40 1.08 0.91 0.64 0.48 0.43 0.43 0.43 0.38 0.38 0.31 0.27 0.26 0.24 0.24 0.27
0.02 0.02 0.02 0.02 0.03 0.04 0.05 0.04 0.04 0.06 0.10 0.22 0.37 0.63 0.86 0.71 0.64 0.48 0.35 0.31 0.35 0.44 0.65 0.95 1.02 1.07 1.07 0.98 0.82 0.70 0.68 0.55 0.49 0.47 0.47 0.48 0.34 0.27 0.24 0.22 0.21 0.21 0.24 0.26
0.04 0.04 0.03 0.03 0.02 0.03 0.03 0.05 0.10 0.21 0.31 0.58 0.56 0.59 0.83 0.74 0.56 0.34 0.24 0.26 0.23 0.29 0.42 0.56 0.56 0.53 0.51 0.43 0.46 0.49 0.61 0.64 0.53 0.43 0.38 0.37 0.32 0.27 0.23 0.19 0.19 0.20 0.22 0.26
0.10 0.08 0.08 0.06 0.05 0.05 0.05 0.08 0.25 0.57 0.91 0.96 0.55 0.52 0.76 0.51 0.32 0.22 0.16 0.15 0.21 0.31 0.38 0.44 0.50 0.49 0.39 0.31 0.34 0.37 0.38 0.38 0.36 0.34 0.33 0.31 0.32 0.28 0.24 0.21 0.17 0.17 0.20 0.23
0.14 0.15 0.11 0.07 0.05 0.05 0.06 0.08 0.17 0.33 0.37 0.42 0.41 0.75 0.82 0.36 0.25 0.15 0.10 0.10 0.15 0.23 0.27 0.28 0.30 0.31 0.26 0.20 0.18 0.18 0.20 0.18 0.18 0.19 0.22 0.23 0.26 0.22 0.21 0.24 0.20 0.18 0.20 0.24
0.06 0.06 0.04 0.04 0.05 0.06 0.06 0.05 0.06 0.07 0.11 0.25 0.44 0.64 0.52 0.29 0.18 0.10 0.06 0.06 0.08 0.10 0.11 0.12 0.10 0.10 0.11 0.10 0.11 0.12 0.12 0.11 0.11 0.13 0.16 0.16 0.19 0.20 0.20 0.21 0.20 0.19 0.25 0.26
0.03 0.02 0.03 0.03 0.05 0.06 0.06 0.05 0.04 0.04 0.11 0.22 0.38 0.61 0.62 0.34 0.19 0.09 0.04 0.04 0.04 0.03 0.04 0.05 0.05 0.05 0.04 0.03 0.05 0.07 0.09 0.11 0.11 0.11 0.10 0.09 0.12 0.15 0.17 0.16 0.18 0.21 0.21 0.22
0.02 0.01 0.02 0.03 0.05 0.05 0.05 0.04 0.04 0.04 0.05 0.11 0.26 0.42 0.33 0.19 0.07 0.04 0.02 0.01 0.01 0.01 0.01 0.02 0.02 0.02 0.02 0.03 0.03 0.04 0.05 0.06 0.08 0.07 0.08 0.08 0.09 0.10 0.12 0.15 0.17 0.19 0.20 0.21
0.02 0.01 0.01 0.04 0.06 0.05 0.04 0.03 0.04 0.05 0.05 0.06 0.12 0.18 0.12 0.09 0.04 0.03 0.01 0.01 0.01 0.01 0.00 0.00 0.00 0.01 0.01 0.01 0.02 0.03 0.04 0.04 0.06 0.06 0.06 0.06 0.10 0.10 0.10 0.11 0.15 0.18 0.20 0.19
0.02 0.01 0.02 0.11 0.18 0.11 0.05 0.03 0.04 0.04 0.04 0.05 0.15 0.23 0.11 0.06 0.03 0.02 0.01 0.01 0.01 0.01 0.01 0.01 0.01 0.01 0.01 0.02 0.03 0.04 0.05 0.05 0.06 0.06 0.06 0.07 0.09 0.11 0.11 0.11 0.13 0.16 0.19 0.20
0.03 0.02 0.02 0.12 0.18 0.15 0.11 0.07 0.06 0.04 0.05 0.06 0.11 0.21 0.13 0.08 0.04 0.02 0.01 0.01 0.01 0.01 0.01 0.01 0.01 0.01 0.02 0.03 0.04 0.05 0.05 0.07 0.06 0.08 0.10 0.12 0.13 0.15 0.14 0.12 0.13 0.15 0.18 0.20
0.04 0.03 0.02 0.01 0.04 0.07 0.09 0.09 0.07 0.05 0.05 0.07 0.06 0.09 0.11 0.14 0.09 0.03 0.02 0.01 0.01 0.01 0.01 0.01 0.01 0.01 0.02 0.03 0.04 0.05 0.06 0.06 0.06 0.07 0.10 0.11 0.12 0.14 0.13 0.14 0.16 0.16 0.15 0.16
0.04 0.02 0.01 0.01 0.03 0.04 0.06 0.09 0.07 0.04 0.03 0.03 0.02 0.04 0.07 0.12 0.11 0.09 0.06 0.04 0.03 0.03 0.03 0.04 0.04 0.04 0.04 0.04 0.04 0.05 0.07 0.08 0.09 0.12 0.14 0.12 0.13 0.15 0.14 0.15 0.16 0.16 0.17 0.21
0.05 0.04 0.04 0.03 0.04 0.04 0.07 0.07 0.04 0.03 0.03 0.03 0.04 0.06 0.08 0.11 0.13 0.12 0.13 0.13 0.10 0.10 0.10 0.09 0.08 0.07 0.06 0.06 0.06 0.06 0.07 0.07 0.08 0.10 0.14 0.15 0.17 0.18 0.16 0.15 0.17 0.19 0.24 0.28
0.10 0.10 0.07 0.04 0.07 0.12 0.08 0.05 0.05 0.04 0.04 0.06 0.10 0.14 0.17 0.21 0.23 0.25 0.29 0.27 0.19 0.13 0.10 0.07 0.05 0.06 0.09 0.07 0.06 0.06 0.08 0.09 0.08 0.10 0.16 0.21 0.24 0.24 0.23 0.24 0.26 0.29 0.32 0.34
0.14 0.17 0.13 0.09 0.11 0.11 0.08 0.08 0.07 0.09 0.11 0.15 0.23 0.31 0.33 0.34 0.34 0.29 0.22 0.16 0.11 0.07 0.05 0.05 0.04 0.05 0.06 0.07 0.06 0.07 0.09 0.11 0.15 0.21 0.25 0.29 0.34 0.37 0.37 0.39 0.41 0.44 0.46 0.42
0.16 0.16 0.16 0.12 0.15 0.18 0.16 0.20 0.19 0.19 0.32 0.32 0.38 0.35 0.26 0.20 0.23 0.19 0.10 0.07 0.05 0.04 0.04 0.05 0.06 0.06 0.08 0.09 0.09 0.12 0.15 0.19 0.22 0.27 0.33 0.40 0.48 0.54 0.52 0.53 0.56 0.56 0.58 0.54
0.24 0.24 0.20 0.16 0.19 0.17 0.20 0.24 0.27 0.46 0.57 0.41 0.37 0.29 0.22 0.19 0.20 0.17 0.11 0.08 0.06 0.05 0.05 0.05 0.06 0.08 0.11 0.14 0.19 0.26 0.29 0.30 0.30 0.33 0.37 0.43 0.50 0.58 0.58 0.60 0.63 0.64 0.63 0.62
0.35 0.33 0.30 0.28 0.36 0.35 0.26 0.29 0.44 0.56 0.41 0.32 0.27 0.22 0.18 0.16 0.13 0.12 0.11 0.09 0.08 0.08 0.07 0.07 0.09 0.10 0.12 0.17 0.24 0.31 0.36 0.35 0.37 0.41 0.42 0.45 0.52 0.54 0.53 0.64 0.71 0.78 0.81 0.77
0.37 0.33 0.36 0.40 0.41 0.35 0.29 0.30 0.31 0.33 0.32 0.25 0.21 0.19 0.16 0.13 0.13 0.11 0.09 0.09 0.08 0.09 0.08 0.08 0.10 0.12 0.14 0.18 0.25 0.32 0.34 0.36 0.37 0.41 0.43 0.49 0.57 0.63 0.66 0.73 0.78 0.89 0.96 0.93
0.32 0.24 0.26 0.38 0.38 0.30 0.27 0.28 0.25 0.20 0.18 0.13 0.11 0.14 0.15 0.15 0.17 0.17 0.11 0.08 0.07 0.06 0.06 0.08 0.11 0.15 0.17 0.19 0.23 0.28 0.34 0.42 0.46 0.47 0.48 0.53 0.59 0.65 0.75 0.85 0.85 0.87 0.93 0.96
0.21 0.19 0.21 0.33 0.40 0.38 0.34 0.30 0.25 0.19 0.15 0.12 0.11 0.11 0.11 0.11 0.11 0.13 0.12 0.09 0.07 0.05 0.06 0.08 0.13 0.16 0.17 0.17 0.19 0.22 0.29 0.42 0.50 0.50 0.50 0.54 0.59 0.65 0.78 0.90 0.92 0.83 0.83 0.87
0.12 0.14 0.18 0.28 0.31 0.36 0.38 0.28 0.20 0.15 0.14 0.17 0.16 0.12 0.12 0.10 0.06 0.04 0.05 0.05 0.06 0.07 0.09 0.14 0.16 0.17 0.16 0.17 0.19 0.21 0.28 0.42 0.52 0.53 0.50 0.52 0.55 0.63 0.73 0.86 0.91 0.77 0.64 0.62